• In Czech Republic
  • List of Countries
  • For 7 days
  • Water Temperature
  • Satellite Maps
  • Weather Map
  • Weather Widgets
  • user-avatar
    Login

    Hourly Weather Hilo

    Today, 22 February, Thursday

    Time Temperature Precipitation Wind Pressure Humidity
    00:00 +25°C° 0.8 mm 3 mps 749 mmHg 91%
    01:00 +25°C° 0.8 mm 3 mps 749 mmHg 91%
    02:00 +25°C° 0.8 mm 3 mps 749 mmHg 91%
    03:00 +24°C° 1.5 mm 3 mps 749 mmHg 91%
    04:00 +24°C° 1.5 mm 3 mps 749 mmHg 91%
    05:00 +24°C° 1.5 mm 3 mps 749 mmHg 92%
    06:00 +24°C° 2.2 mm 3 mps 749 mmHg 91%
    07:00 +23°C° 2.2 mm 4 mps 749 mmHg 90%
    08:00 +23°C° 2.2 mm 4 mps 749 mmHg 89%
    09:00 +25°C° 2.1 mm 4 mps 750 mmHg 87%
    10:00 +25°C° 2.1 mm 4 mps 750 mmHg 84%
    11:00 +26°C° 2.1 mm 4 mps 750 mmHg 82%
    12:00 +25°C° 2.5 mm 4 mps 750 mmHg 84%
    13:00 +25°C° 2.5 mm 4 mps 750 mmHg 85%
    14:00 +25°C° 2.5 mm 4 mps 749 mmHg 86%
    15:00 +25°C° 2.2 mm 4 mps 749 mmHg 87%
    16:00 +25°C° 2.2 mm 4 mps 749 mmHg 88%
    17:00 +25°C° 2.2 mm 4 mps 749 mmHg 88%
    18:00 +25°C° 0.7 mm 4 mps 750 mmHg 89%
    19:00 +25°C° 0.7 mm 4 mps 750 mmHg 90%
    20:00 +23°C° 0.7 mm 5 mps 750 mmHg 90%
    21:00 +23°C° 0.7 mm 5 mps 751 mmHg 89%
    22:00 +23°C° 0.7 mm 4 mps 751 mmHg 89%
    23:00 +23°C° 0.7 mm 4 mps 751 mmHg 88%

    Tomorrow, 23 February, Friday

    Time Temperature Precipitation Wind Pressure Humidity
    00:00 +23°C° 0.7 mm 4 mps 751 mmHg 87%
    01:00 +23°C° 0.7 mm 4 mps 750 mmHg 87%
    02:00 +23°C° 0.7 mm 4 mps 750 mmHg 86%
    03:00 +23°C° 0.6 mm 4 mps 750 mmHg 86%
    04:00 +23°C° 0.6 mm 4 mps 750 mmHg 86%
    05:00 +23°C° 0.6 mm 4 mps 750 mmHg 87%
    06:00 +23°C° 0.8 mm 4 mps 750 mmHg 87%
    07:00 +23°C° 0.8 mm 4 mps 751 mmHg 87%
    08:00 +25°C° 0.8 mm 5 mps 751 mmHg 87%
    09:00 +25°C° 1.2 mm 5 mps 751 mmHg 86%
    10:00 +26°C° 1.2 mm 5 mps 751 mmHg 85%
    11:00 +26°C° 1.2 mm 5 mps 751 mmHg 84%
    12:00 +26°C° 1.7 mm 5 mps 751 mmHg 85%
    13:00 +26°C° 1.7 mm 5 mps 750 mmHg 86%
    14:00 +26°C° 1.7 mm 5 mps 750 mmHg 87%
    15:00 +26°C° 2.6 mm 6 mps 750 mmHg 88%
    16:00 +24°C° 2.6 mm 6 mps 750 mmHg 90%
    17:00 +24°C° 2.6 mm 6 mps 749 mmHg 92%
    18:00 +24°C° 2.8 mm 6 mps 750 mmHg 92%
    19:00 +24°C° 2.8 mm 6 mps 750 mmHg 93%
    20:00 +24°C° 2.8 mm 6 mps 751 mmHg 93%
    21:00 +23°C° 1.7 mm 6 mps 751 mmHg 93%
    22:00 +23°C° 1.7 mm 6 mps 751 mmHg 93%
    23:00 +23°C° 1.7 mm 6 mps 752 mmHg 93%

    Day after tomorrow, 24 February, Saturday

    Time Temperature Precipitation Wind Pressure Humidity
    00:00 +23°C° 1 mm 6 mps 751 mmHg 93%
    01:00 +23°C° 1 mm 6 mps 751 mmHg 93%
    02:00 +23°C° 1 mm 6 mps 751 mmHg 94%
    03:00 +23°C° 1 mm 6 mps 750 mmHg 94%
    04:00 +23°C° 1 mm 6 mps 750 mmHg 94%
    05:00 +23°C° 1 mm 6 mps 750 mmHg 94%
    06:00 +23°C° 0.6 mm 6 mps 751 mmHg 93%
    07:00 +23°C° 0.6 mm 6 mps 751 mmHg 92%
    08:00 +23°C° 0.6 mm 6 mps 752 mmHg 92%
    09:00 +24°C° 0.5 mm 6 mps 752 mmHg 90%
    10:00 +24°C° 0.5 mm 6 mps 752 mmHg 88%
    11:00 +24°C° 0.5 mm 6 mps 752 mmHg 86%
    12:00 +26°C° 0.7 mm 6 mps 751 mmHg 85%
    13:00 +26°C° 0.7 mm 6 mps 750 mmHg 85%
    14:00 +26°C° 0.7 mm 6 mps 750 mmHg 85%
    15:00 +26°C° 0.7 mm 6 mps 750 mmHg 86%
    16:00 +24°C° 0.7 mm 6 mps 749 mmHg 88%
    17:00 +24°C° 0.7 mm 6 mps 749 mmHg 89%
    18:00 +24°C° 0.5 mm 6 mps 750 mmHg 90%
    19:00 +24°C° 0.5 mm 6 mps 750 mmHg 91%
    20:00 +23°C° 0.5 mm 6 mps 751 mmHg 92%
    21:00 +23°C° 0.6 mm 6 mps 751 mmHg 92%
    22:00 +23°C° 0.6 mm 6 mps 751 mmHg 93%
    23:00 +23°C° 0.6 mm 6 mps 751 mmHg 93%

    25 February, Sunday

    Time Temperature Precipitation Wind Pressure Humidity
    00:00 +23°C° 0.6 mm 6 mps 750 mmHg 92%
    01:00 +23°C° 0.6 mm 6 mps 750 mmHg 92%
    02:00 +23°C° 0.6 mm 6 mps 749 mmHg 92%
    03:00 +23°C° 0.6 mm 6 mps 749 mmHg 92%
    04:00 +23°C° 0.6 mm 6 mps 749 mmHg 92%
    05:00 +23°C° 0.6 mm 6 mps 749 mmHg 92%
    06:00 +23°C° 0.6 mm 6 mps 750 mmHg 91%
    07:00 +23°C° 0.6 mm 6 mps 751 mmHg 91%
    08:00 +23°C° 0.6 mm 6 mps 751 mmHg 90%
    09:00 +24°C° 0.5 mm 6 mps 751 mmHg 88%
    10:00 +24°C° 0.5 mm 6 mps 751 mmHg 87%
    11:00 +24°C° 0.5 mm 6 mps 751 mmHg 85%
    12:00 +26°C° 0.6 mm 6 mps 751 mmHg 85%
    13:00 +26°C° 0.6 mm 6 mps 750 mmHg 84%
    14:00 +26°C° 0.6 mm 6 mps 750 mmHg 84%
    15:00 +26°C° 0.9 mm 6 mps 750 mmHg 86%
    16:00 +25°C° 0.9 mm 5 mps 750 mmHg 87%
    17:00 +25°C° 0.9 mm 5 mps 750 mmHg 89%
    18:00 +24°C° 0.7 mm 6 mps 750 mmHg 89%
    19:00 +23°C° 0.7 mm 6 mps 751 mmHg 90%
    20:00 +23°C° 0.7 mm 6 mps 751 mmHg 90%
    21:00 +23°C° 0.4 mm 6 mps 751 mmHg 90%
    22:00 +23°C° 0.4 mm 5 mps 751 mmHg 90%
    23:00 +23°C° 0.4 mm 5 mps 752 mmHg 89%

    26 February, Monday

    Time Temperature Precipitation Wind Pressure Humidity
    00:00 +23°C° 0.4 mm 5 mps 751 mmHg 89%
    01:00 +23°C° 0.4 mm 6 mps 751 mmHg 88%
    02:00 +22°C° 0.4 mm 6 mps 750 mmHg 88%
    03:00 +22°C° 0.6 mm 6 mps 750 mmHg 89%
    04:00 +22°C° 0.6 mm 6 mps 750 mmHg 90%
    05:00 +22°C° 0.6 mm 6 mps 750 mmHg 91%
    06:00 +23°C° 0.9 mm 6 mps 750 mmHg 91%
    07:00 +23°C° 0.9 mm 6 mps 751 mmHg 90%
    08:00 +23°C° 0.9 mm 7 mps 751 mmHg 90%
    09:00 +23°C° 0.6 mm 7 mps 752 mmHg 89%
    10:00 +23°C° 0.6 mm 7 mps 752 mmHg 88%
    11:00 +24°C° 0.6 mm 7 mps 752 mmHg 87%
    12:00 +24°C° 0.6 mm 7 mps 751 mmHg 87%
    13:00 +24°C° 0.6 mm 7 mps 751 mmHg 86%
    14:00 +24°C° 0.6 mm 7 mps 750 mmHg 86%
    15:00 +24°C° 0.4 mm 7 mps 750 mmHg 86%
    16:00 +23°C° 0.4 mm 7 mps 750 mmHg 86%
    17:00 +23°C° 0.4 mm 7 mps 750 mmHg 87%
    18:00 +23°C° 0.5 mm 7 mps 751 mmHg 87%
    19:00 +23°C° 0.5 mm 7 mps 751 mmHg 88%
    20:00 +22°C° 0.5 mm 6 mps 752 mmHg 88%
    21:00 +22°C° 0.2 mm 6 mps 752 mmHg 88%
    22:00 +22°C° 0.2 mm 6 mps 752 mmHg 87%
    23:00 +22°C° 0.2 mm 6 mps 752 mmHg 86%

    27 February, Tuesday

    Time Temperature Precipitation Wind Pressure Humidity
    00:00 +22°C° 0.4 mm 6 mps 751 mmHg 86%
    01:00 +22°C° 0.4 mm 6 mps 751 mmHg 85%
    02:00 +22°C° 0.4 mm 6 mps 751 mmHg 85%
    03:00 +22°C° 0.4 mm 6 mps 751 mmHg 87%
    04:00 +22°C° 0.4 mm 6 mps 750 mmHg 88%
    05:00 +22°C° 0.4 mm 6 mps 750 mmHg 89%
    06:00 +22°C° 0.4 mm 7 mps 751 mmHg 89%
    07:00 +22°C° 0.4 mm 7 mps 751 mmHg 89%
    08:00 +22°C° 0.4 mm 7 mps 752 mmHg 89%
    09:00 +23°C° 0.5 mm 7 mps 752 mmHg 87%
    10:00 +23°C° 0.5 mm 7 mps 752 mmHg 86%
    11:00 +23°C° 0.5 mm 7 mps 752 mmHg 84%
    12:00 +23°C° 0.4 mm 7 mps 751 mmHg 84%
    13:00 +24°C° 0.4 mm 7 mps 751 mmHg 83%
    14:00 +24°C° 0.4 mm 7 mps 750 mmHg 82%
    15:00 +24°C° 0.4 mm 7 mps 750 mmHg 83%
    16:00 +24°C° 0.4 mm 7 mps 750 mmHg 83%
    17:00 +23°C° 0.4 mm 7 mps 750 mmHg 84%
    18:00 +23°C° 0.5 mm 7 mps 751 mmHg 85%
    19:00 +23°C° 0.5 mm 7 mps 751 mmHg 86%
    20:00 +22°C° 0.5 mm 6 mps 751 mmHg 88%
    21:00 +22°C° 0.7 mm 7 mps 751 mmHg 88%
    22:00 +22°C° 0.7 mm 7 mps 752 mmHg 88%
    23:00 +22°C° 0.7 mm 7 mps 752 mmHg 89%
    Show more